Regional Weather Roundup
Issued by NWS

Home | Current Version | Previous Version | Graphics & Text | Print | Product List | Glossary On
Versions: 1 2 3 4 5 6 7 8 9 10 11 12 13 14 15 16 17 18 19 20 21 22 23 24 25 26 27 28 29 30 31 32 33 34 35 36 37 38 39 40 41 42 43 44 45 46 47 48 49 50
314
ASUS44 KJAN 240403
RWRMS

MISSISSIPPI HOURLY WEATHER ROUNDUP
NATIONAL WEATHER SERVICE JACKSON MS
1100 PM CDT WED APR 23 2014

NOTE: "FAIR: INDICATES FEW OR NO CLOUDS BELOW 12,000 FEET WITH NO
SIGNIFICANT WEATHER AND/OR OBSTRUCTIONS TO VISIBILITY.

MSZ001>002-007>008-010>013-018>021-025>028-034>036-240500-
NORTHWEST MISSISSIPPI

CITY           SKY/WX    TMP DP  RH WIND       PRES   REMARKS
CLARKSDALE       N/A     61  46  59 CALM      29.93S
CLEVELAND      FAIR      61  53  76 CALM      29.91F
GREENWOOD      CLEAR     54  50  86 CALM      29.93S
GREENVILLE     CLEAR     61  51  70 CALM      29.91S
GRENADA        FAIR      52  48  87 CALM      29.94F
OLIVE BRANCH   CLEAR     61  43  51 NE6       29.94F
OXFORD         FAIR      52  45  76 CALM      29.96S
TUNICA         CLEAR     59  45  58 CALM      29.93S
$$

MSZ003>006-009-014>017-022>024-029>033-037>039-240500-
NORTHEAST MISSISSIPPI

CITY           SKY/WX    TMP DP  RH WIND       PRES   REMARKS
BELMONT        FAIR      51  46  82 CALM      29.96S
COLUMBUS AFB   CLEAR     52  49  88 CALM      29.95S
CORINTH        FAIR      54  45  71 CALM      29.96S
GOLDN TRIANGLE CLEAR     59  46  63 E5        29.97S
STARKVILLE     FAIR      52  50  93 CALM      29.94F
TUPELO         CLEAR     56  46  69 CALM      29.95S
$$

MSZ040-058-240500-
CENTRAL MISSISSIPPI

CITY           SKY/WX    TMP DP  RH WIND       PRES   REMARKS
JACKSON INTL   CLEAR     58  52  80 CALM      29.92S
JACKSON HAWKNS CLEAR     63  52  67 CALM      29.93R
MERIDIAN KEY   CLEAR     57  53  86 CALM      29.93F
MERIDIAN NAS   CLEAR     56  48  74 CALM      29.94S
RAYMOND        FAIR      55  52  88 CALM      29.93R
VICKSBURG      CLEAR     60  54  80 CALM      29.91S
$$

MSZ059>079-240500-
SOUTH MISSISSIPPI

CITY           SKY/WX    TMP DP  RH WIND       PRES   REMARKS
BROOKHAVEN     FAIR      57  54  88 CALM      29.94S
HATTIESBURG    MOCLDY    64  61  90 CALM      29.93S
MCCOMB         CLEAR     62  53  72 CALM      29.92S
NATCHEZ        CLEAR     57  52  82 CALM      29.91F
PINE BELT      MOCLDY    61  57  88 CALM      29.93S
$$

MSZ080>082-240500-
COASTAL MISSISSIPPI

CITY           SKY/WX    TMP DP  RH WIND       PRES   REMARKS
BILOXI         CLEAR     71  68  92 S6        29.93S
PASCAGOULA     PTCLDY    64  63  96 CALM      29.93S FOG
GULFPORT       CLEAR     70  65  84 CALM      29.92S
$$



USA.gov is the U.S. government's official web portal to all federal, state and local government web resources and services.